Overview Statistics Trail Chart Weather Telemetry Raw packets
 

This is the latest recevied weather packets stored in our database for station/object HB9FHL-13. If no packets are shown the sender has not sent any weather packets the latest 10 day(s).

<< 11 12 13 14 15 16 17 >>
Time Temp. Humidity Pressure Rain* Wind** Luminosity Snow
1788604725 21.67° C - 1023.2 hPa 0 mm - - -
1788604422 21.67° C - 1027.1 hPa 0 mm - - -
1788603819 21.67° C - 1027.1 hPa 0 mm - - -
1788603518 21.11° C - 1018.7 hPa 0 mm - - -
1788603220 21.67° C - 1025.6 hPa 0 mm - - -
1788602918 21.11° C - 1026.6 hPa 0 mm - - -
1788602617 21.11° C - 1022.6 hPa 0 mm - - -
1788602318 21.11° C - 1024.4 hPa 0 mm - - -
1788602053 20.56° C - 1027.1 hPa 0 mm - - -
1788602015 20.56° C - 1027.1 hPa 0 mm - - -
1788601713 21.11° C - 1026.1 hPa 0 mm - - -
1788601412 21.11° C - 1025.4 hPa 0 mm - - -
1788601111 21.11° C - 1028.6 hPa 0 mm - - -
1788600858 21.11° C - 1026.2 hPa 0 mm - - -
1788600811 21.11° C - 1026.2 hPa 0 mm - - -
1788600510 21.11° C - 1024.1 hPa 0 mm - - -
1788600210 21.11° C - 1025 hPa 0 mm - - -
1788599909 20.56° C - 1027.9 hPa 0 mm - - -
1788599608 21.67° C - 1025.2 hPa 0 mm - - -
1788599306 21.11° C - 1024.2 hPa 0 mm - - -
1788599006 20.56° C - 1025.1 hPa 0 mm - - -
1788598705 20.56° C - 1024.4 hPa 0 mm - - -
1788598405 19.44° C - 1025.4 hPa 0 mm - - -
1788598104 20° C - 1026 hPa 0 mm - - -
1788597804 19.44° C - 1028.4 hPa 0 mm - - -

* Rain since midnight (hover to see other rain measurements)
** Current wind speed in m/s (hover to see current wind gust speed)